DAL724 KBNA-KLGA

Flight info

Callsign DAL724
Flight time 1h 44m
Altitude 35000
Route KRSTA4 OLSIE IIU Q139 CREEP Q29 WWSHR TEESY Q186 WEVEL ETG MIP4
Aircraft A319/M-SDE3FGHIRWY/LB1

Departure

Time 2026-05-06 20:11
Airport Nashville International Airport (KBNA)

Arrival

Time 2026-05-06 21:56
Airport LaGuardia Airport (KLGA)
Time Latitude Longitude Altitude Speed Heading
2026-05-06 19:44 36.13319 -86.67153 573 ft 0 kts 203°
2026-05-06 19:54 36.13332 -86.67146 573 ft 2 kts 204°
2026-05-06 19:54 36.13353 -86.67134 571 ft 4 kts 217°
2026-05-06 19:54 36.13366 -86.67112 571 ft 4 kts 278°
2026-05-06 19:54 36.13369 -86.67120 570 ft 4 kts 287°
2026-05-06 19:55 36.13377 -86.67152 571 ft 4 kts 288°
2026-05-06 19:55 36.13384 -86.67178 572 ft 1 kts 288°
2026-05-06 19:55 36.13384 -86.67179 569 ft 0 kts 288°
2026-05-06 19:59 36.13384 -86.67180 575 ft 1 kts 288°
2026-05-06 19:59 36.13391 -86.67203 572 ft 4 kts 290°
2026-05-06 19:59 36.13404 -86.67251 572 ft 7 kts 289°
2026-05-06 20:00 36.13388 -86.67315 570 ft 9 kts 219°
2026-05-06 20:00 36.13321 -86.67346 568 ft 12 kts 198°
2026-05-06 20:00 36.13233 -86.67365 571 ft 12 kts 185°
2026-05-06 20:00 36.13160 -86.67374 569 ft 10 kts 185°
2026-05-06 20:01 36.13087 -86.67381 575 ft 11 kts 181°
2026-05-06 20:01 36.13006 -86.67355 569 ft 12 kts 152°
2026-05-06 20:01 36.12937 -86.67292 574 ft 12 kts 140°
2026-05-06 20:01 36.12879 -86.67256 573 ft 9 kts 189°
2026-05-06 20:02 36.12823 -86.67309 576 ft 11 kts 223°
2026-05-06 20:02 36.12771 -86.67370 576 ft 9 kts 223°
2026-05-06 20:02 36.12723 -86.67425 575 ft 9 kts 219°
2026-05-06 20:02 36.12667 -86.67466 576 ft 10 kts 210°
2026-05-06 20:03 36.12598 -86.67515 580 ft 13 kts 215°
2026-05-06 20:03 36.12528 -86.67593 579 ft 14 kts 223°
2026-05-06 20:03 36.12452 -86.67669 580 ft 14 kts 208°
2026-05-06 20:03 36.12366 -86.67706 579 ft 13 kts 198°
2026-05-06 20:04 36.12277 -86.67742 579 ft 14 kts 198°
2026-05-06 20:04 36.12182 -86.67781 580 ft 15 kts 198°
2026-05-06 20:04 36.12085 -86.67820 578 ft 14 kts 198°
2026-05-06 20:04 36.11993 -86.67859 577 ft 14 kts 199°
2026-05-06 20:05 36.11916 -86.67889 579 ft 9 kts 198°
2026-05-06 20:05 36.11864 -86.67911 579 ft 8 kts 198°
2026-05-06 20:05 36.11801 -86.67937 579 ft 11 kts 197°
2026-05-06 20:05 36.11716 -86.67970 579 ft 14 kts 198°
2026-05-06 20:06 36.11618 -86.68011 582 ft 16 kts 198°
2026-05-06 20:06 36.11518 -86.68052 580 ft 14 kts 197°
2026-05-06 20:06 36.11428 -86.68090 580 ft 14 kts 200°
2026-05-06 20:06 36.11332 -86.68129 580 ft 15 kts 198°
2026-05-06 20:07 36.11251 -86.68160 582 ft 10 kts 197°
2026-05-06 20:07 36.11187 -86.68186 580 ft 9 kts 201°
2026-05-06 20:07 36.11136 -86.68231 578 ft 9 kts 221°
2026-05-06 20:07 36.11089 -86.68279 576 ft 8 kts 218°
2026-05-06 20:08 36.11046 -86.68321 575 ft 8 kts 219°
2026-05-06 20:08 36.11001 -86.68369 574 ft 12 kts 221°
2026-05-06 20:08 36.10903 -86.68426 571 ft 18 kts 198°
2026-05-06 20:08 36.10782 -86.68474 571 ft 18 kts 198°
2026-05-06 20:09 36.10665 -86.68522 571 ft 18 kts 198°
2026-05-06 20:09 36.10548 -86.68568 573 ft 17 kts 198°
2026-05-06 20:09 36.10448 -86.68608 583 ft 14 kts 198°
2026-05-06 20:09 36.10366 -86.68641 579 ft 9 kts 198°
2026-05-06 20:10 36.10325 -86.68693 580 ft 9 kts 257°
2026-05-06 20:10 36.10341 -86.68774 576 ft 7 kts 290°
2026-05-06 20:10 36.10371 -86.68780 577 ft 0 kts 18°
2026-05-06 20:11 36.10557 -86.68706 574 ft 69 kts 17°
2026-05-06 20:11 36.11279 -86.68419 576 ft 145 kts 18°
2026-05-06 20:11 36.12317 -86.67999 1069 ft 159 kts 17°
2026-05-06 20:11 36.13358 -86.67545 1857 ft 158 kts 18°
2026-05-06 20:12 36.14408 -86.67072 2523 ft 168 kts 18°
2026-05-06 20:12 36.15582 -86.66577 2884 ft 189 kts 18°
2026-05-06 20:12 36.16900 -86.66036 3155 ft 212 kts 17°
2026-05-06 20:12 36.18382 -86.65438 3479 ft 236 kts 17°
2026-05-06 20:13 36.20029 -86.64780 3904 ft 261 kts 17°
2026-05-06 20:13 36.21803 -86.64076 4572 ft 273 kts 16°
2026-05-06 20:13 36.23643 -86.63352 5378 ft 281 kts 15°
2026-05-06 20:13 36.25528 -86.62618 6173 ft 288 kts 14°
2026-05-06 20:14 36.27468 -86.61880 6960 ft 295 kts 12°
2026-05-06 20:14 36.29461 -86.61152 7766 ft 302 kts 15°
2026-05-06 20:14 36.31438 -86.60180 8552 ft 308 kts 17°
2026-05-06 20:14 36.33447 -86.59199 9344 ft 313 kts 16°
2026-05-06 20:15 36.35479 -86.58221 10226 ft 312 kts 15°
2026-05-06 20:15 36.37578 -86.57230 10552 ft 335 kts 14°
2026-05-06 20:15 36.39840 -86.56174 10781 ft 359 kts 15°
2026-05-06 20:15 36.42226 -86.55047 11234 ft 372 kts 15°
2026-05-06 20:16 36.44657 -86.53879 11911 ft 378 kts 15°
2026-05-06 20:16 36.47116 -86.52688 12608 ft 382 kts 14°
2026-05-06 20:16 36.49604 -86.51483 13298 ft 386 kts 14°
2026-05-06 20:16 36.52119 -86.50265 13965 ft 390 kts 14°
2026-05-06 20:17 36.54659 -86.49032 14616 ft 394 kts 13°
2026-05-06 20:17 36.57224 -86.47791 15245 ft 397 kts 13°
2026-05-06 20:17 36.59806 -86.46537 15856 ft 401 kts 13°
2026-05-06 20:17 36.62414 -86.45231 16465 ft 406 kts 14°
2026-05-06 20:18 36.65036 -86.43886 17050 ft 409 kts 13°
2026-05-06 20:18 36.67679 -86.42513 17604 ft 413 kts 14°
2026-05-06 20:18 36.70338 -86.41127 18160 ft 416 kts 13°
2026-05-06 20:18 36.73023 -86.39717 18705 ft 421 kts 14°
2026-05-06 20:19 36.75703 -86.38161 19251 ft 428 kts 17°
2026-05-06 20:19 36.78378 -86.36461 19759 ft 435 kts 19°
2026-05-06 20:19 36.81093 -86.34646 20291 ft 439 kts 19°
2026-05-06 20:19 36.83786 -86.32816 20791 ft 444 kts 19°
2026-05-06 20:20 36.86511 -86.30974 21280 ft 447 kts 19°
2026-05-06 20:20 36.89237 -86.29161 21745 ft 451 kts 19°
2026-05-06 20:20 36.92063 -86.27310 22208 ft 455 kts 18°
2026-05-06 20:20 36.94886 -86.25485 22654 ft 458 kts 18°
2026-05-06 20:21 36.97731 -86.23656 23098 ft 462 kts 18°
2026-05-06 20:21 37.00602 -86.21811 23493 ft 466 kts 18°
2026-05-06 20:21 37.03501 -86.19940 23899 ft 470 kts 18°
2026-05-06 20:21 37.06417 -86.18049 24262 ft 474 kts 18°
2026-05-06 20:22 37.09358 -86.16131 24615 ft 478 kts 18°
2026-05-06 20:22 37.12312 -86.14197 24966 ft 481 kts 18°
2026-05-06 20:22 37.15285 -86.12249 25316 ft 484 kts 18°
2026-05-06 20:22 37.18281 -86.10289 25663 ft 486 kts 18°
2026-05-06 20:23 37.21284 -86.08323 25995 ft 489 kts 18°
2026-05-06 20:23 37.24314 -86.06361 26328 ft 490 kts 16°
2026-05-06 20:23 37.27387 -86.04509 26656 ft 490 kts 14°
2026-05-06 20:23 37.30501 -86.02760 26985 ft 490 kts 13°
2026-05-06 20:24 37.33641 -86.01068 27311 ft 492 kts 12°
2026-05-06 20:24 37.36801 -85.99382 27615 ft 495 kts 12°
2026-05-06 20:24 37.39964 -85.97682 27933 ft 497 kts 13°
2026-05-06 20:24 37.43151 -85.95939 28259 ft 500 kts 13°
2026-05-06 20:25 37.46342 -85.94160 28576 ft 503 kts 13°
2026-05-06 20:25 37.49543 -85.92348 28878 ft 506 kts 14°
2026-05-06 20:25 37.52757 -85.90516 29170 ft 508 kts 14°
2026-05-06 20:25 37.55982 -85.88678 29445 ft 510 kts 13°
2026-05-06 20:26 37.59227 -85.86835 29722 ft 512 kts 13°
2026-05-06 20:26 37.62483 -85.84994 29989 ft 514 kts 13°
2026-05-06 20:26 37.65752 -85.83148 30256 ft 516 kts 13°
2026-05-06 20:26 37.69039 -85.81288 30505 ft 519 kts 13°
2026-05-06 20:27 37.72334 -85.79417 30756 ft 521 kts 13°
2026-05-06 20:27 37.75642 -85.77539 31057 ft 521 kts 13°
2026-05-06 20:27 37.78951 -85.75661 31411 ft 520 kts 12°
2026-05-06 20:27 37.82254 -85.73786 31749 ft 520 kts 12°
2026-05-06 20:28 37.85556 -85.71907 32073 ft 521 kts 12°
2026-05-06 20:28 37.88853 -85.70031 32432 ft 519 kts 12°
2026-05-06 20:28 37.92149 -85.68155 32772 ft 519 kts 12°
2026-05-06 20:28 37.95438 -85.66275 33097 ft 519 kts 11°
2026-05-06 20:29 37.98727 -85.64394 33404 ft 519 kts 11°
2026-05-06 20:29 38.02016 -85.62513 33747 ft 518 kts 11°
2026-05-06 20:29 38.05297 -85.60635 34081 ft 517 kts 11°
2026-05-06 20:29 38.08570 -85.58761 34382 ft 517 kts 10°
2026-05-06 20:30 38.11839 -85.56851 34671 ft 519 kts 12°
2026-05-06 20:30 38.18305 -85.52614 35017 ft 525 kts 15°
2026-05-06 20:31 38.24687 -85.48085 35026 ft 525 kts 16°
2026-05-06 20:31 38.31061 -85.43607 35016 ft 522 kts 15°
2026-05-06 20:32 38.37465 -85.39241 35020 ft 521 kts 14°
2026-05-06 20:32 38.43872 -85.34904 35027 ft 521 kts 14°
2026-05-06 20:33 38.50263 -85.30537 35026 ft 522 kts 15°
2026-05-06 20:33 38.55621 -85.26856 35025 ft 522 kts 15°
2026-05-06 20:34 38.62011 -85.22440 35025 ft 522 kts 15°
2026-05-06 20:34 38.68401 -85.18030 35028 ft 522 kts 15°
2026-05-06 20:35 38.74793 -85.13615 35030 ft 522 kts 15°
2026-05-06 20:35 38.81178 -85.09197 35030 ft 522 kts 15°
2026-05-06 20:36 38.87562 -85.04764 35031 ft 522 kts 15°
2026-05-06 20:36 38.93951 -85.00328 35027 ft 522 kts 15°
2026-05-06 20:37 39.00332 -84.95877 35018 ft 522 kts 15°
2026-05-06 20:37 39.06714 -84.91420 35027 ft 521 kts 15°
2026-05-06 20:38 39.13081 -84.86960 35026 ft 521 kts 15°
2026-05-06 20:38 39.19441 -84.82491 35027 ft 520 kts 15°
2026-05-06 20:39 39.25803 -84.78028 35028 ft 520 kts 15°
2026-05-06 20:39 39.32153 -84.73556 35028 ft 520 kts 15°
2026-05-06 20:40 39.38501 -84.69070 35026 ft 520 kts 15°
2026-05-06 20:40 39.44852 -84.64580 35027 ft 520 kts 15°
2026-05-06 20:41 39.51197 -84.60090 35025 ft 520 kts 15°
2026-05-06 20:41 39.57544 -84.55587 35025 ft 520 kts 15°
2026-05-06 20:42 39.63888 -84.51072 35021 ft 520 kts 15°
2026-05-06 20:42 39.70226 -84.46547 35023 ft 520 kts 15°
2026-05-06 20:43 39.76569 -84.42015 35022 ft 520 kts 15°
2026-05-06 20:43 39.82907 -84.37478 35023 ft 521 kts 15°
2026-05-06 20:44 39.89254 -84.32920 35024 ft 522 kts 16°
2026-05-06 20:44 39.92333 -84.30299 35025 ft 538 kts 26°
2026-05-06 20:44 39.95181 -84.27037 35021 ft 551 kts 34°
2026-05-06 20:45 40.00678 -84.20058 35023 ft 551 kts 34°
2026-05-06 20:45 40.06170 -84.13081 35024 ft 551 kts 34°
2026-05-06 20:46 40.11666 -84.06115 35017 ft 551 kts 34°
2026-05-06 20:46 40.17165 -83.99132 35015 ft 551 kts 34°
2026-05-06 20:47 40.22652 -83.92125 35012 ft 551 kts 34°
2026-05-06 20:47 40.28131 -83.85119 35014 ft 551 kts 34°
2026-05-06 20:48 40.33611 -83.78109 35014 ft 551 kts 34°
2026-05-06 20:48 40.39087 -83.71081 35016 ft 551 kts 34°
2026-05-06 20:49 40.44550 -83.64047 35010 ft 550 kts 34°
2026-05-06 20:49 40.50003 -83.56992 35009 ft 550 kts 34°
2026-05-06 20:50 40.55457 -83.49933 35004 ft 549 kts 34°
2026-05-06 20:50 40.60902 -83.42879 35006 ft 549 kts 34°
2026-05-06 20:51 40.66343 -83.35816 35007 ft 549 kts 34°
2026-05-06 20:51 40.71551 -83.28388 34998 ft 560 kts 44°
2026-05-06 20:52 40.76347 -83.20203 34987 ft 560 kts 44°
2026-05-06 20:52 40.81119 -83.12067 34996 ft 560 kts 44°
2026-05-06 20:53 40.85888 -83.03930 34996 ft 560 kts 44°
2026-05-06 20:53 40.90644 -82.95797 34985 ft 560 kts 44°
2026-05-06 20:54 40.95394 -82.87640 34981 ft 559 kts 45°
2026-05-06 20:54 41.00134 -82.79484 34980 ft 559 kts 45°
2026-05-06 20:55 41.04868 -82.71313 34980 ft 559 kts 45°
2026-05-06 20:55 41.09588 -82.63125 34975 ft 559 kts 45°
2026-05-06 20:56 41.14209 -82.54835 34972 ft 564 kts 52°
2026-05-06 20:56 41.18003 -82.45651 34972 ft 568 kts 57°
2026-05-06 20:57 41.21739 -82.36406 34969 ft 568 kts 57°
2026-05-06 20:57 41.25469 -82.27165 34970 ft 568 kts 57°
2026-05-06 20:58 41.29193 -82.17900 34972 ft 568 kts 57°
2026-05-06 20:58 41.32708 -82.08475 34970 ft 572 kts 66°
2026-05-06 20:59 41.34588 -81.98184 34968 ft 574 kts 86°
2026-05-06 20:59 41.35113 -81.87598 34965 ft 573 kts 88°
2026-05-06 21:00 41.35615 -81.77020 34963 ft 573 kts 88°
2026-05-06 21:00 41.36108 -81.66424 34961 ft 573 kts 89°
2026-05-06 21:01 41.36587 -81.55835 34966 ft 573 kts 89°
2026-05-06 21:01 41.37055 -81.45249 34970 ft 573 kts 89°
2026-05-06 21:02 41.37511 -81.34667 34968 ft 573 kts 89°
2026-05-06 21:02 41.37958 -81.24088 34966 ft 572 kts 89°
2026-05-06 21:03 41.38389 -81.13505 34961 ft 572 kts 89°
2026-05-06 21:03 41.38815 -81.02918 34955 ft 572 kts 89°
2026-05-06 21:04 41.39238 -80.92332 34958 ft 572 kts 89°
2026-05-06 21:04 41.39650 -80.81762 34956 ft 572 kts 89°
2026-05-06 21:05 41.40041 -80.71184 34955 ft 572 kts 89°
2026-05-06 21:05 41.40427 -80.60617 34942 ft 572 kts 89°
2026-05-06 21:06 41.40815 -80.50014 34927 ft 574 kts 89°
2026-05-06 21:06 41.41189 -80.39381 34929 ft 576 kts 89°
2026-05-06 21:07 41.41546 -80.28703 34933 ft 577 kts 89°
2026-05-06 21:07 41.41887 -80.18007 34937 ft 578 kts 89°
2026-05-06 21:08 41.41739 -80.07349 34940 ft 573 kts 102°
2026-05-06 21:08 41.40716 -79.96827 34937 ft 573 kts 102°
2026-05-06 21:09 41.39691 -79.86307 34942 ft 572 kts 102°
2026-05-06 21:09 41.38663 -79.75795 34941 ft 572 kts 102°
2026-05-06 21:10 41.37621 -79.65294 34935 ft 572 kts 102°
2026-05-06 21:10 41.36740 -79.56500 34933 ft 572 kts 102°
2026-05-06 21:11 41.35676 -79.46016 34934 ft 571 kts 102°
2026-05-06 21:11 41.34606 -79.35542 34930 ft 571 kts 102°
2026-05-06 21:12 41.33528 -79.25088 34930 ft 570 kts 102°
2026-05-06 21:12 41.32445 -79.14647 34926 ft 570 kts 102°
2026-05-06 21:13 41.31347 -79.04215 34912 ft 569 kts 102°
2026-05-06 21:13 41.30239 -78.93790 34906 ft 569 kts 102°
2026-05-06 21:14 41.29129 -78.83389 34907 ft 568 kts 102°
2026-05-06 21:14 41.28010 -78.72989 34898 ft 568 kts 102°
2026-05-06 21:15 41.26878 -78.62597 34908 ft 568 kts 102°
2026-05-06 21:15 41.25745 -78.52207 34911 ft 567 kts 102°
2026-05-06 21:16 41.24601 -78.41838 34839 ft 568 kts 103°
2026-05-06 21:16 41.24024 -78.36650 34533 ft 567 kts 103°
2026-05-06 21:16 41.23444 -78.31477 34234 ft 566 kts 103°
2026-05-06 21:16 41.22864 -78.26304 33934 ft 566 kts 103°
2026-05-06 21:17 41.22283 -78.21129 33635 ft 567 kts 103°
2026-05-06 21:17 41.21698 -78.15953 33336 ft 567 kts 103°
2026-05-06 21:17 41.21102 -78.10780 33035 ft 567 kts 103°
2026-05-06 21:17 41.20478 -78.05618 32839 ft 565 kts 104°
2026-05-06 21:18 41.19831 -78.00470 32919 ft 566 kts 104°
2026-05-06 21:18 41.18511 -77.90184 32884 ft 564 kts 104°
2026-05-06 21:19 41.17208 -77.79923 32882 ft 563 kts 104°
2026-05-06 21:19 41.15922 -77.69680 32878 ft 562 kts 104°
2026-05-06 21:20 41.14630 -77.59444 32878 ft 562 kts 104°
2026-05-06 21:20 41.13316 -77.49229 32880 ft 561 kts 104°
2026-05-06 21:21 41.11993 -77.39033 32782 ft 562 kts 104°
2026-05-06 21:21 41.11326 -77.33928 32524 ft 561 kts 104°
2026-05-06 21:21 41.10658 -77.28836 32274 ft 561 kts 104°
2026-05-06 21:21 41.09990 -77.23732 32020 ft 561 kts 104°
2026-05-06 21:22 41.09326 -77.18645 31754 ft 560 kts 104°
2026-05-06 21:22 41.08655 -77.13538 30796 ft 564 kts 104°
2026-05-06 21:22 41.07980 -77.08428 30059 ft 562 kts 104°
2026-05-06 21:22 41.07308 -77.03334 29274 ft 560 kts 104°
2026-05-06 21:23 41.06634 -76.98265 28514 ft 557 kts 104°
2026-05-06 21:23 41.05956 -76.93176 27873 ft 550 kts 104°
2026-05-06 21:23 41.05304 -76.88285 27320 ft 542 kts 104°
2026-05-06 21:23 41.04646 -76.83385 26655 ft 537 kts 104°
2026-05-06 21:24 41.03988 -76.78539 26055 ft 531 kts 104°
2026-05-06 21:24 41.03325 -76.73697 25477 ft 524 kts 104°
2026-05-06 21:24 41.02688 -76.69046 24841 ft 516 kts 104°
2026-05-06 21:24 41.01844 -76.64427 24081 ft 503 kts 112°
2026-05-06 21:25 41.00806 -76.60099 23325 ft 496 kts 112°
2026-05-06 21:25 40.99759 -76.55737 22683 ft 487 kts 111°
2026-05-06 21:25 40.98763 -76.51576 22223 ft 474 kts 112°
2026-05-06 21:25 40.97777 -76.47465 21756 ft 463 kts 112°
2026-05-06 21:26 40.96809 -76.43439 21297 ft 454 kts 112°
2026-05-06 21:26 40.95857 -76.39499 20843 ft 446 kts 112°
2026-05-06 21:26 40.94907 -76.35574 20376 ft 441 kts 112°
2026-05-06 21:26 40.93972 -76.31727 19904 ft 437 kts 112°
2026-05-06 21:27 40.93043 -76.27912 19447 ft 434 kts 112°
2026-05-06 21:27 40.92121 -76.24135 18964 ft 431 kts 112°
2026-05-06 21:27 40.91204 -76.20378 18500 ft 428 kts 112°
2026-05-06 21:27 40.90308 -76.16694 18043 ft 425 kts 112°
2026-05-06 21:28 40.89398 -76.12944 17578 ft 421 kts 112°
2026-05-06 21:28 40.88522 -76.09344 17284 ft 413 kts 112°
2026-05-06 21:28 40.87635 -76.05704 16883 ft 408 kts 112°
2026-05-06 21:28 40.86765 -76.02155 16439 ft 404 kts 112°
2026-05-06 21:29 40.85898 -75.98642 16006 ft 401 kts 112°
2026-05-06 21:29 40.85035 -75.95142 15574 ft 398 kts 112°
2026-05-06 21:29 40.84179 -75.91685 15134 ft 395 kts 112°
2026-05-06 21:29 40.83325 -75.88244 14710 ft 393 kts 113°
2026-05-06 21:30 40.82478 -75.84837 14286 ft 390 kts 113°
2026-05-06 21:30 40.81638 -75.81448 13858 ft 387 kts 112°
2026-05-06 21:30 40.80804 -75.78082 13434 ft 384 kts 112°
2026-05-06 21:30 40.79975 -75.74741 13018 ft 381 kts 112°
2026-05-06 21:31 40.79148 -75.71425 12848 ft 380 kts 112°
2026-05-06 21:31 40.78324 -75.68107 12750 ft 380 kts 113°
2026-05-06 21:31 40.77502 -75.64799 12166 ft 385 kts 113°
2026-05-06 21:31 40.76654 -75.61416 11990 ft 393 kts 113°
2026-05-06 21:32 40.75790 -75.57973 12025 ft 396 kts 112°
2026-05-06 21:32 40.74066 -75.51066 12023 ft 396 kts 112°
2026-05-06 21:32 40.73204 -75.47613 12025 ft 396 kts 112°
2026-05-06 21:33 40.72353 -75.44149 12026 ft 397 kts 111°
2026-05-06 21:33 40.71587 -75.40647 12022 ft 398 kts 109°
2026-05-06 21:33 40.70888 -75.37114 12026 ft 398 kts 108°
2026-05-06 21:33 40.70219 -75.33572 12024 ft 399 kts 108°
2026-05-06 21:34 40.69555 -75.30024 12023 ft 399 kts 108°
2026-05-06 21:34 40.68879 -75.26473 12025 ft 399 kts 108°
2026-05-06 21:34 40.68187 -75.22930 12025 ft 399 kts 108°
2026-05-06 21:34 40.67484 -75.19396 12033 ft 399 kts 109°
2026-05-06 21:35 40.66572 -75.16000 11728 ft 389 kts 120°
2026-05-06 21:35 40.65190 -75.12995 11164 ft 379 kts 133°
2026-05-06 21:35 40.63475 -75.10451 10700 ft 368 kts 140°
2026-05-06 21:35 40.61744 -75.08013 10399 ft 358 kts 139°
2026-05-06 21:36 40.60084 -75.05648 10274 ft 346 kts 139°
2026-05-06 21:36 40.58486 -75.03360 10134 ft 333 kts 139°
2026-05-06 21:36 40.57060 -75.01007 10004 ft 328 kts 127°
2026-05-06 21:36 40.56084 -74.98315 10025 ft 325 kts 116°
2026-05-06 21:37 40.55263 -74.95558 10023 ft 324 kts 117°
2026-05-06 21:37 40.54440 -74.92800 10024 ft 324 kts 117°
2026-05-06 21:37 40.53616 -74.90042 10023 ft 324 kts 117°
2026-05-06 21:37 40.52792 -74.87292 10023 ft 324 kts 117°
2026-05-06 21:38 40.51969 -74.84536 10026 ft 323 kts 117°
2026-05-06 21:38 40.51136 -74.81776 10026 ft 333 kts 117°
2026-05-06 21:38 40.50247 -74.78864 10020 ft 352 kts 117°
2026-05-06 21:38 40.49333 -74.75857 10010 ft 356 kts 117°
2026-05-06 21:39 40.48420 -74.72823 10016 ft 358 kts 116°
2026-05-06 21:39 40.47511 -74.69783 10015 ft 358 kts 116°
2026-05-06 21:39 40.46599 -74.66740 10017 ft 358 kts 117°
2026-05-06 21:39 40.45682 -74.63697 10019 ft 358 kts 117°
2026-05-06 21:40 40.44765 -74.60655 10015 ft 358 kts 117°
2026-05-06 21:40 40.43926 -74.57528 10017 ft 362 kts 109°
2026-05-06 21:40 40.43576 -74.54280 10013 ft 368 kts 95°
2026-05-06 21:40 40.43782 -74.50913 10020 ft 373 kts 81°
2026-05-06 21:41 40.44528 -74.47651 10024 ft 374 kts 70°
2026-05-06 21:41 40.45405 -74.44434 10022 ft 374 kts 71°
2026-05-06 21:41 40.46289 -74.41162 10021 ft 375 kts 71°
2026-05-06 21:41 40.47157 -74.37937 10026 ft 375 kts 71°
2026-05-06 21:42 40.48005 -74.34774 10024 ft 359 kts 71°
2026-05-06 21:42 40.48815 -74.31743 9949 ft 346 kts 71°
2026-05-06 21:42 40.49601 -74.28803 9721 ft 339 kts 72°
2026-05-06 21:42 40.50380 -74.25889 9365 ft 337 kts 72°
2026-05-06 21:43 40.51153 -74.22987 8980 ft 336 kts 72°
2026-05-06 21:43 40.51925 -74.20098 8610 ft 335 kts 72°
2026-05-06 21:43 40.52694 -74.17218 8256 ft 332 kts 72°
2026-05-06 21:43 40.53455 -74.14363 7896 ft 330 kts 72°
2026-05-06 21:44 40.54208 -74.11525 7499 ft 328 kts 72°
2026-05-06 21:44 40.55019 -74.08738 7112 ft 326 kts 64°
2026-05-06 21:44 40.56253 -74.06266 6722 ft 322 kts 47°
2026-05-06 21:44 40.57895 -74.04299 6313 ft 317 kts 31°
2026-05-06 21:45 40.59736 -74.02741 5921 ft 314 kts 28°
2026-05-06 21:45 40.61568 -74.01196 5527 ft 311 kts 29°
2026-05-06 21:45 40.62795 -74.00156 5256 ft 310 kts 29°
2026-05-06 21:45 40.64684 -73.98874 5022 ft 302 kts 12°
2026-05-06 21:46 40.66715 -73.98164 5022 ft 304 kts
2026-05-06 21:46 40.68786 -73.97524 5024 ft 305 kts
2026-05-06 21:46 40.70848 -73.96895 5022 ft 305 kts
2026-05-06 21:46 40.72925 -73.96257 5024 ft 307 kts
2026-05-06 21:47 40.75005 -73.95619 5025 ft 306 kts
2026-05-06 21:47 40.77077 -73.94990 5025 ft 305 kts
2026-05-06 21:47 40.79138 -73.94371 5035 ft 304 kts
2026-05-06 21:47 40.81200 -73.93758 5025 ft 304 kts
2026-05-06 21:48 40.83267 -73.93151 5025 ft 305 kts
2026-05-06 21:48 40.85337 -73.92536 4868 ft 303 kts
2026-05-06 21:48 40.87364 -73.91926 4614 ft 293 kts
2026-05-06 21:48 40.89250 -73.90943 4362 ft 290 kts 25°
2026-05-06 21:49 40.90989 -73.89649 4115 ft 283 kts 27°
2026-05-06 21:49 40.92678 -73.88369 3873 ft 278 kts 28°
2026-05-06 21:49 40.94349 -73.87119 3618 ft 273 kts 27°
2026-05-06 21:49 40.95992 -73.85896 3374 ft 269 kts 27°
2026-05-06 21:50 40.97505 -73.84487 3121 ft 265 kts 49°
2026-05-06 21:50 40.98331 -73.82417 3000 ft 249 kts 85°
2026-05-06 21:50 40.98263 -73.80236 3011 ft 233 kts 112°
2026-05-06 21:50 40.97803 -73.78182 2903 ft 232 kts 117°
2026-05-06 21:51 40.97094 -73.76385 2725 ft 210 kts 142°
2026-05-06 21:51 40.95881 -73.75515 2553 ft 197 kts 170°
2026-05-06 21:51 40.94536 -73.75134 2386 ft 198 kts 170°
2026-05-06 21:51 40.93164 -73.75192 2212 ft 201 kts 192°
2026-05-06 21:52 40.91878 -73.76010 2117 ft 211 kts 208°
2026-05-06 21:52 40.90633 -73.77047 2106 ft 212 kts 208°
2026-05-06 21:52 40.89409 -73.78064 2100 ft 200 kts 211°
2026-05-06 21:52 40.88288 -73.78996 2097 ft 181 kts 211°
2026-05-06 21:53 40.87242 -73.79865 1989 ft 174 kts 211°
2026-05-06 21:53 40.86208 -73.80721 1789 ft 170 kts 211°
2026-05-06 21:53 40.85245 -73.81518 1575 ft 160 kts 211°
2026-05-06 21:53 40.84353 -73.82257 1378 ft 143 kts 210°
2026-05-06 21:54 40.83531 -73.82938 1191 ft 138 kts 211°
2026-05-06 21:54 40.82724 -73.83606 1014 ft 137 kts 211°
2026-05-06 21:54 40.81921 -73.84270 837 ft 136 kts 211°
2026-05-06 21:54 40.81119 -73.84934 659 ft 136 kts 211°
2026-05-06 21:55 40.80323 -73.85599 481 ft 135 kts 212°
2026-05-06 21:55 40.79526 -73.86257 297 ft 135 kts 211°
2026-05-06 21:55 40.78731 -73.86915 113 ft 135 kts 212°
2026-05-06 21:55 40.77962 -73.87549 17 ft 117 kts 212°
2026-05-06 21:56 40.77423 -73.87996 24 ft 67 kts 212°
2026-05-06 21:56 40.77165 -73.88211 24 ft 24 kts 212°
2026-05-06 21:56 40.77061 -73.88213 24 ft 17 kts 127°
2026-05-06 21:56 40.77082 -73.88128 24 ft 13 kts 31°
2026-05-06 21:57 40.77162 -73.88062 21 ft 14 kts 32°
2026-05-06 21:57 40.77250 -73.87990 21 ft 15 kts 31°
2026-05-06 21:57 40.77343 -73.87913 21 ft 16 kts 32°
2026-05-06 21:57 40.77437 -73.87833 22 ft 16 kts 33°
2026-05-06 21:58 40.77535 -73.87752 21 ft 17 kts 32°
2026-05-06 21:58 40.77598 -73.87692 23 ft 9 kts 54°
2026-05-06 21:58 40.77613 -73.87608 20 ft 10 kts 69°
2026-05-06 21:58 40.77670 -73.87553 21 ft 11 kts 32°
2026-05-06 21:59 40.77735 -73.87489 19 ft 13 kts 49°
2026-05-06 21:59 40.77770 -73.87364 15 ft 16 kts 83°
2026-05-06 21:59 40.77750 -73.87222 15 ft 16 kts 118°
2026-05-06 21:59 40.77689 -73.87092 17 ft 17 kts 122°
2026-05-06 22:00 40.77622 -73.86953 15 ft 19 kts 121°
2026-05-06 22:00 40.77551 -73.86804 14 ft 20 kts 125°
2026-05-06 22:00 40.77469 -73.86653 13 ft 21 kts 122°
2026-05-06 22:00 40.77391 -73.86491 13 ft 21 kts 122°
2026-05-06 22:01 40.77312 -73.86325 13 ft 21 kts 122°
2026-05-06 22:01 40.77231 -73.86157 13 ft 22 kts 122°
2026-05-06 22:01 40.77152 -73.85991 13 ft 15 kts 122°
2026-05-06 22:01 40.77097 -73.85913 13 ft 11 kts 161°
2026-05-06 22:02 40.77040 -73.85894 20 ft 7 kts 165°
2026-05-06 22:02 40.76992 -73.85880 19 ft 9 kts 173°
2026-05-06 22:02 40.76924 -73.85906 22 ft 11 kts 216°
2026-05-06 22:02 40.76882 -73.85948 20 ft 4 kts 189°
2026-05-06 22:03 40.76860 -73.85926 20 ft 2 kts 131°
2026-05-06 22:03 40.76850 -73.85911 20 ft 1 kts 131°
2026-05-06 22:03 40.76849 -73.85910 20 ft 0 kts 132°